Hourly Weather Kistelek

Today, 22 October, Thursday

Time Temperature Precipitation Wind Pressure Humidity
00:00 +11°C° 0 mm 3 mps 757 mmHg 64%
01:00 +11°C° 0 mm 3 mps 757 mmHg 66%
02:00 +10°C° 0 mm 3 mps 757 mmHg 67%
03:00 +10°C° 0 mm 3 mps 757 mmHg 67%
04:00 +10°C° 0 mm 3 mps 757 mmHg 68%
05:00 +10°C° 0 mm 2 mps 757 mmHg 69%
06:00 +10°C° 0 mm 2 mps 757 mmHg 70%
07:00 +10°C° 0 mm 2 mps 757 mmHg 70%
08:00 +13°C° 0 mm 2 mps 758 mmHg 64%
09:00 +15°C° 0 mm 2 mps 758 mmHg 57%
10:00 +17°C° 0 mm 3 mps 758 mmHg 50%
11:00 +18°C° 0 mm 3 mps 758 mmHg 47%
12:00 +19°C° 0 mm 3 mps 758 mmHg 44%
13:00 +20°C° 0 mm 3 mps 757 mmHg 41%
14:00 +20°C° 0 mm 3 mps 757 mmHg 45%
15:00 +19°C° 0 mm 2 mps 757 mmHg 48%
16:00 +18°C° 0 mm 2 mps 756 mmHg 52%
17:00 +17°C° 0 mm 2 mps 757 mmHg 55%
18:00 +16°C° 0 mm 2 mps 757 mmHg 59%
19:00 +15°C° 0 mm 2 mps 757 mmHg 63%
20:00 +15°C° 0 mm 2 mps 757 mmHg 65%
21:00 +14°C° 0 mm 2 mps 757 mmHg 68%
22:00 +14°C° 0 mm 2 mps 757 mmHg 70%
23:00 +14°C° 0 mm 2 mps 757 mmHg 70%

Tomorrow, 23 October, Friday

Time Temperature Precipitation Wind Pressure Humidity
00:00 +13°C° 0 mm 2 mps 757 mmHg 70%
01:00 +13°C° 0 mm 2 mps 757 mmHg 69%
02:00 +12°C° 0 mm 3 mps 756 mmHg 69%
03:00 +11°C° 0 mm 3 mps 756 mmHg 69%
04:00 +11°C° 0 mm 3 mps 756 mmHg 70%
05:00 +11°C° 0 mm 3 mps 756 mmHg 69%
06:00 +11°C° 0 mm 3 mps 756 mmHg 68%
07:00 +11°C° 0 mm 3 mps 756 mmHg 67%
08:00 +13°C° 0 mm 3 mps 756 mmHg 61%
09:00 +15°C° 0 mm 4 mps 755 mmHg 56%
10:00 +18°C° 0 mm 4 mps 755 mmHg 51%
11:00 +19°C° 0 mm 5 mps 755 mmHg 50%
12:00 +20°C° 0 mm 5 mps 755 mmHg 49%
13:00 +21°C° 0 mm 5 mps 754 mmHg 48%
14:00 +21°C° 0 mm 4 mps 754 mmHg 50%
15:00 +20°C° 0 mm 4 mps 753 mmHg 52%
16:00 +20°C° 0 mm 3 mps 753 mmHg 53%
17:00 +19°C° 0 mm 3 mps 753 mmHg 56%
18:00 +17°C° 0 mm 3 mps 753 mmHg 58%
19:00 +16°C° 0 mm 2 mps 753 mmHg 60%
20:00 +16°C° 0 mm 3 mps 753 mmHg 59%
21:00 +16°C° 0 mm 3 mps 752 mmHg 58%
22:00 +14°C° 0 mm 3 mps 752 mmHg 56%
23:00 +14°C° 0 mm 3 mps 752 mmHg 59%

Day after tomorrow, 24 October, Saturday

Time Temperature Precipitation Wind Pressure Humidity
00:00 +14°C° 0 mm 4 mps 752 mmHg 62%
01:00 +14°C° 0 mm 4 mps 752 mmHg 65%
02:00 +14°C° 0 mm 4 mps 753 mmHg 67%
03:00 +14°C° 0 mm 5 mps 753 mmHg 69%
04:00 +14°C° 0 mm 5 mps 753 mmHg 71%
05:00 +14°C° 0 mm 5 mps 753 mmHg 76%
06:00 +13°C° 0 mm 5 mps 753 mmHg 80%
07:00 +13°C° 0 mm 5 mps 753 mmHg 85%
08:00 +14°C° 0 mm 5 mps 754 mmHg 80%
09:00 +15°C° 0 mm 4 mps 754 mmHg 75%
10:00 +17°C° 0 mm 4 mps 754 mmHg 70%
11:00 +17°C° 0 mm 4 mps 754 mmHg 68%
12:00 +18°C° 0 mm 4 mps 754 mmHg 67%
13:00 +18°C° 0 mm 4 mps 754 mmHg 66%
14:00 +18°C° 0 mm 4 mps 754 mmHg 66%
15:00 +18°C° 0 mm 3 mps 754 mmHg 67%
16:00 +18°C° 0 mm 3 mps 754 mmHg 67%
17:00 +17°C° 0 mm 3 mps 754 mmHg 72%
18:00 +16°C° 0 mm 3 mps 755 mmHg 76%
19:00 +15°C° 0 mm 2 mps 755 mmHg 81%
20:00 +15°C° 0 mm 2 mps 755 mmHg 82%
21:00 +14°C° 0 mm 2 mps 755 mmHg 83%
22:00 +14°C° 0 mm 2 mps 755 mmHg 84%
23:00 +14°C° 0 mm 2 mps 755 mmHg 86%

, 25 October, Sunday

Time Temperature Precipitation Wind Pressure Humidity
00:00 +13°C° 0 mm 2 mps 755 mmHg 88%
01:00 +13°C° 0 mm 1 mps 755 mmHg 90%
02:00 +13°C° 0 mm 2 mps 755 mmHg 91%
03:00 +13°C° 0 mm 2 mps 755 mmHg 92%
04:00 +13°C° 0 mm 2 mps 755 mmHg 92%
05:00 +13°C° 0 mm 2 mps 755 mmHg 91%
06:00 +13°C° 0 mm 2 mps 755 mmHg 91%
07:00 +12°C° 0 mm 3 mps 754 mmHg 90%
08:00 +13°C° 0 mm 3 mps 755 mmHg 85%
09:00 +14°C° 0 mm 3 mps 755 mmHg 80%
10:00 +16°C° 0 mm 3 mps 755 mmHg 75%
11:00 +17°C° 0.1 mm 3 mps 754 mmHg 72%
12:00 +18°C° 0.1 mm 3 mps 754 mmHg 68%
13:00 +18°C° 0.1 mm 3 mps 754 mmHg 64%
14:00 +18°C° 0.1 mm 2 mps 753 mmHg 68%
15:00 +17°C° 0.1 mm 2 mps 753 mmHg 71%
16:00 +16°C° 0.1 mm 2 mps 753 mmHg 75%
17:00 +16°C° 0 mm 2 mps 753 mmHg 78%
18:00 +15°C° 0 mm 2 mps 753 mmHg 81%
19:00 +14°C° 0 mm 2 mps 753 mmHg 85%
20:00 +14°C° 0.1 mm 2 mps 753 mmHg 86%
21:00 +14°C° 0.1 mm 2 mps 753 mmHg 88%
22:00 +14°C° 0.1 mm 2 mps 752 mmHg 89%
23:00 +14°C° 1 mm 2 mps 752 mmHg 91%

25 October, Sunday

Time Temperature Precipitation Wind Pressure Humidity
00:00 +13°C° 0 mm 2 mps 755 mmHg 88%
01:00 +13°C° 0 mm 1 mps 755 mmHg 90%
02:00 +13°C° 0 mm 2 mps 755 mmHg 91%
03:00 +13°C° 0 mm 2 mps 755 mmHg 92%
04:00 +13°C° 0 mm 2 mps 755 mmHg 92%
05:00 +13°C° 0 mm 2 mps 755 mmHg 91%
06:00 +13°C° 0 mm 2 mps 755 mmHg 91%
07:00 +12°C° 0 mm 3 mps 754 mmHg 90%
08:00 +13°C° 0 mm 3 mps 755 mmHg 85%
09:00 +14°C° 0 mm 3 mps 755 mmHg 80%
10:00 +16°C° 0 mm 3 mps 755 mmHg 75%
11:00 +17°C° 0.1 mm 3 mps 754 mmHg 72%
12:00 +18°C° 0.1 mm 3 mps 754 mmHg 68%
13:00 +18°C° 0.1 mm 3 mps 754 mmHg 64%
14:00 +18°C° 0.1 mm 2 mps 753 mmHg 68%
15:00 +17°C° 0.1 mm 2 mps 753 mmHg 71%
16:00 +16°C° 0.1 mm 2 mps 753 mmHg 75%
17:00 +16°C° 0 mm 2 mps 753 mmHg 78%
18:00 +15°C° 0 mm 2 mps 753 mmHg 81%
19:00 +14°C° 0 mm 2 mps 753 mmHg 85%
20:00 +14°C° 0.1 mm 2 mps 753 mmHg 86%
21:00 +14°C° 0.1 mm 2 mps 753 mmHg 88%
22:00 +14°C° 0.1 mm 2 mps 752 mmHg 89%
23:00 +14°C° 1 mm 2 mps 752 mmHg 91%

26 October, Monday

Time Temperature Precipitation Wind Pressure Humidity
00:00 +14°C° 1 mm 2 mps 752 mmHg 93%
01:00 +14°C° 1 mm 2 mps 752 mmHg 94%
02:00 +14°C° 1 mm 2 mps 751 mmHg 94%
03:00 +14°C° 1 mm 2 mps 751 mmHg 95%
04:00 +13°C° 1 mm 3 mps 751 mmHg 95%
05:00 +13°C° 0.1 mm 3 mps 750 mmHg 93%
06:00 +13°C° 0.1 mm 3 mps 750 mmHg 92%
07:00 +13°C° 0.1 mm 3 mps 750 mmHg 91%
08:00 +14°C° 0 mm 4 mps 750 mmHg 85%
09:00 +15°C° 0 mm 5 mps 750 mmHg 78%
10:00 +16°C° 0 mm 5 mps 750 mmHg 72%
11:00 +17°C° 0 mm 5 mps 750 mmHg 69%
12:00 +17°C° 0 mm 5 mps 749 mmHg 66%
13:00 +19°C° 0 mm 5 mps 749 mmHg 62%
14:00 +19°C° 0 mm 5 mps 749 mmHg 64%
15:00 +18°C° 0 mm 4 mps 748 mmHg 66%
16:00 +18°C° 0 mm 3 mps 748 mmHg 68%
17:00 +17°C° 0 mm 3 mps 748 mmHg 72%
18:00 +15°C° 0 mm 4 mps 748 mmHg 76%
19:00 +14°C° 0 mm 4 mps 748 mmHg 80%
20:00 +14°C° 0 mm 4 mps 748 mmHg 81%
21:00 +14°C° 0 mm 4 mps 749 mmHg 82%
22:00 +13°C° 0 mm 4 mps 749 mmHg 83%
23:00 +13°C° 0 mm 4 mps 749 mmHg 85%

27 October, Tuesday

Time Temperature Precipitation Wind Pressure Humidity
00:00 +13°C° 0 mm 4 mps 749 mmHg 86%
01:00 +12°C° 0 mm 4 mps 749 mmHg 87%
02:00 +12°C° 0 mm 4 mps 749 mmHg 87%
03:00 +12°C° 0 mm 4 mps 749 mmHg 88%
04:00 +12°C° 0 mm 4 mps 749 mmHg 89%
05:00 +12°C° 0 mm 4 mps 749 mmHg 88%
06:00 +12°C° 0 mm 4 mps 749 mmHg 88%
07:00 +12°C° 0 mm 4 mps 749 mmHg 87%
08:00 +14°C° 0 mm 5 mps 750 mmHg 80%
09:00 +15°C° 0 mm 6 mps 750 mmHg 73%
10:00 +17°C° 0 mm 6 mps 750 mmHg 65%
11:00 +19°C° 0 mm 6 mps 750 mmHg 63%
12:00 +19°C° 0 mm 6 mps 749 mmHg 60%
13:00 +20°C° 0 mm 6 mps 749 mmHg 57%
14:00 +19°C° 0 mm 5 mps 749 mmHg 60%
15:00 +19°C° 0 mm 4 mps 749 mmHg 63%
16:00 +18°C° 0 mm 3 mps 748 mmHg 66%
17:00 +17°C° 0 mm 3 mps 749 mmHg 68%
18:00 +17°C° 0 mm 3 mps 749 mmHg 71%
19:00 +16°C° 0 mm 3 mps 749 mmHg 74%
20:00 +14°C° 0 mm 3 mps 749 mmHg 74%
21:00 +14°C° 0 mm 3 mps 749 mmHg 74%
22:00 +14°C° 0 mm 3 mps 749 mmHg 74%
23:00 +14°C° 0 mm 3 mps 749 mmHg 74%
Show more